Simultaneous Nadir Overpasses (SNOs) Predictions

Prediction of SNOs between NOAA-19 and METOP-C Satellite Orbit:

Table of predicted SNOs for the next 14.0 days since TLE Epoch: 11/12/2022
Index Date (NOAA-19) Time (NOAA-19) Lat,Lon (NOAA-19) SZA (NOAA-19 ) Date (METOP-C) Time (METOP-C) Lat,Lon (METOP-C) SZA (METOP-C ) Distance(km) Time Diff (sec)
1 11/14/2022 06:41:49 -80.91, -65.65 78.99 11/14/2022 06:42:58 -80.92, -65.68 78.95 1.16 69
2 11/14/2022 07:32:52 80.90, 101.64 101.03 11/14/2022 07:33:38 80.91, 101.53 101.04 2.09 46
3 11/14/2022 08:23:49 -80.91, -91.28 78.98 11/14/2022 08:24:20 -80.91, -91.16 78.95 2.23 31
4 11/14/2022 09:14:52 80.91, 76.01 101.04 11/14/2022 09:15:00 80.90, 76.05 101.04 0.84 8
5 11/14/2022 10:05:48 -80.90,-116.54 78.94 11/14/2022 10:05:42 -80.90,-116.64 78.96 1.75 6
6 11/14/2022 10:56:51 80.90, 50.74 101.08 11/14/2022 10:56:21 80.91, 50.92 101.09 3.28 30
7 11/14/2022 11:47:47 -80.90,-141.80 78.90 11/14/2022 11:47:03 -80.91,-141.76 78.91 1.22 44
8 11/14/2022 12:38:50 80.90, 25.48 101.12 11/14/2022 12:37:43 80.91, 25.44 101.09 0.79 67
9 11/25/2022 14:40:45 -80.91, 174.38 76.50 11/25/2022 14:41:49 -80.91, 174.55 76.46 2.93 64
10 11/25/2022 15:31:45 80.91, -18.30 103.52 11/25/2022 15:32:29 80.91, -18.13 103.55 3.00 44
11 11/25/2022 16:22:44 -80.91, 149.12 76.46 11/25/2022 16:23:11 -80.90, 149.06 76.46 1.06 27
12 11/25/2022 17:13:44 80.91, -43.57 103.55 11/25/2022 17:13:51 80.90, -43.62 103.55 0.92 7
13 11/25/2022 18:04:43 -80.91, 123.85 76.43 11/25/2022 18:04:32 -80.91, 123.93 76.42 1.70 11
14 11/25/2022 18:55:43 80.91, -68.84 103.59 11/25/2022 18:55:12 80.91, -68.74 103.59 1.95 31
15 11/25/2022 19:46:42 -80.90, 98.58 76.40 11/25/2022 19:45:54 -80.91, 98.44 76.43 2.44 48



Historial Predications of SNOs between NOAA-19 and METOP-C
